Latest Coastal Weather Observations for Melbourne

IDV60701

Issued at 6:25 am EDT Saturday 29 November 2014 (issued every 10 minutes, with the page automatically refreshed every 10 minutes)

About coastal observations | Map of coastal stations | Coastal observations for VIC | Marine services | Other Formats
Station Details ID: 086071 Name: MELBOURNE REGIONAL OFFICE Lat: -37.81 Lon: 144.97 Height: 31.15 m
Data from the previous 72 hours. | See also: Recent months at Melbourne
Date/Time
EDT
Temp

°C
Wind Pressure Rain
since 9am
mm
Weather Cloud Vis
km
Sea
Height
m
Swell
Dir
 
Speed
knots
Gust
knots
hPa Trend Height
m
Period
s
Dir
29/06:00am 14.4 - - - 1017.6 - 0.0 - - - - - - -
29/05:30am 14.2 - - - 1017.4 - 0.0 - - - - - - -
29/05:00am 14.2 - - - 1017.5 - 0.0 - - - - - - -
29/04:30am 14.1 - - - 1017.3 - 0.0 - - - - - - -
29/04:00am 14.1 - - - 1017.3 - 0.0 - - - - - - -
29/03:30am 14.4 - - - 1017.4 - 0.0 - - - - - - -
29/03:00am 14.2 - - - 1017.6 - 0.0 - - - - - - -
29/02:30am 13.8 - - - 1017.5 - 0.0 - - - - - - -
29/02:00am 13.4 - - - 1017.8 - 0.0 - - - - - - -
29/01:30am 13.7 - - - 1018.1 - 0.0 - - - - - - -
29/01:00am 14.0 - - - 1018.4 - 0.0 - - - - - - -
29/12:30am 14.3 - - - 1018.8 - 0.0 - - - - - - -
29/12:00am 14.2 - - - 1019.3 - 0.0 - - - - - - -
 
Date/Time
EDT
Temp

°C
Wind Pressure Rain
since 9am
mm
Weather Cloud Vis
km
Sea
Height
m
Swell
Dir
 
Speed
knots
Gust
knots
hPa Trend Height
m
Period
s
Dir
28/11:30pm 14.4 - - - 1019.7 - 0.0 - - - - - - -
28/11:00pm 14.9 - - - 1020.0 - 0.0 - - - - - - -
28/10:30pm 15.2 - - - 1020.4 - 0.0 - - - - - - -
28/10:00pm 15.2 - - - 1020.5 - 0.0 - - - - - - -
28/09:30pm 15.7 - - - 1020.3 - 0.0 - - - - - - -
28/09:00pm 16.4 - - - 1020.0 - 0.0 - - - - - - -
28/08:30pm 17.0 - - - 1019.6 - 0.0 - - - - - - -
28/08:00pm 17.5 - - - 1019.4 - 0.0 - - - - - - -
28/07:30pm 18.7 - - - 1019.3 - 0.0 - - - - - - -
28/07:00pm 18.6 - - - 1019.1 - 0.0 - - - - - - -
28/06:30pm 19.3 - - - 1018.8 - 0.0 - - - - - - -
28/06:00pm 19.6 - - - 1018.9 - 0.0 - - - - - - -
28/05:30pm 20.5 - - - 1019.1 - 0.0 - - - - - - -
28/05:00pm 20.4 - - - 1019.4 - 0.0 - - - - - - -
28/04:30pm 20.5 - - - 1019.4 - 0.0 - - - - - - -
28/04:00pm 19.9 - - - 1019.8 - 0.0 - - - - - - -
28/03:30pm 19.5 - - - 1020.2 - 0.0 - - - - - - -
28/03:00pm 19.8 - - - 1020.5 - 0.0 - - - - - - -
28/02:30pm 19.0 - - - 1020.9 - 0.0 - - - - - - -
28/02:00pm 20.5 - - - 1021.3 - 0.0 - - - - - - -
28/01:30pm 18.7 - - - 1021.8 - 0.0 - - - - - - -
28/01:00pm 17.9 - - - 1022.0 - 0.0 - - - - - - -
28/12:30pm 18.7 - - - 1022.3 - 0.0 - - - - - - -
28/12:00pm 18.9 - - - 1022.5 - 0.0 - - - - - - -
28/11:30am 17.4 - - - 1022.8 - 0.0 - - - - - - -
28/11:00am 17.4 - - - 1023.1 - 0.0 - - - - - - -
28/10:30am 15.3 - - - 1023.5 - 0.0 - - - - - - -
28/10:00am 14.7 - - - 1023.8 - 0.0 - - - - - - -
28/09:30am 14.5 - - - 1024.1 - 0.0 - - - - - - -
28/09:00am 14.2 - - - 1024.3 - 0.0 - - - - - - -
28/08:30am 13.8 - - - 1024.3 - 0.0 - - - - - - -
28/08:00am 13.8 - - - 1024.4 - 0.0 - - - - - - -
28/07:30am 13.5 - - - 1023.9 - 0.0 - - - - - - -
28/07:00am 13.6 - - - 1023.7 - 0.0 - - - - - - -
28/06:30am 13.1 - - - 1023.4 - 0.0 - - - - - - -
28/06:00am 13.1 - - - 1023.2 - 0.0 - - - - - - -
28/05:30am 12.8 - - - 1022.9 - 0.0 - - - - - - -
28/05:00am 12.5 - - - 1022.5 - 0.0 - - - - - - -
28/04:30am 12.1 - - - 1022.2 - 0.0 - - - - - - -
28/04:00am 12.2 - - - 1022.3 - 0.0 - - - - - - -
28/03:30am 12.2 - - - 1022.1 - 0.0 - - - - - - -
28/03:00am 12.3 - - - 1022.0 - 0.0 - - - - - - -
28/02:30am 12.5 - - - 1022.4 - 0.0 - - - - - - -
28/02:00am 12.5 - - - 1022.6 - 0.0 - - - - - - -
28/01:30am 12.7 - - - 1023.1 - 0.0 - - - - - - -
28/01:00am 12.8 - - - 1023.4 - 0.0 - - - - - - -
28/12:30am 13.0 - - - 1023.9 - 0.0 - - - - - - -
28/12:00am 13.3 - - - 1024.1 - 0.0 - - - - - - -
 
Date/Time
EDT
Temp

°C
Wind Pressure Rain
since 9am
mm
Weather Cloud Vis
km
Sea
Height
m
Swell
Dir
 
Speed
knots
Gust
knots
hPa Trend Height
m
Period
s
Dir
27/11:30pm 13.4 - - - 1024.3 - 0.0 - - - - - - -
27/11:00pm 13.5 - - - 1024.3 - 0.0 - - - - - - -
27/10:30pm 13.7 - - - 1024.4 - 0.0 - - - - - - -
27/10:00pm 13.9 - - - 1024.6 - 0.0 - - - - - - -
27/09:30pm 14.3 - - - 1024.6 - 0.0 - - - - - - -
27/09:00pm 14.9 - - - 1024.2 - 0.0 - - - - - - -
27/08:30pm 15.3 - - - 1024.0 - 0.0 - - - - - - -
27/08:00pm 15.6 - - - 1023.9 - 0.0 - - - - - - -
27/07:30pm 16.4 - - - 1023.8 - 0.0 - - - - - - -
27/07:00pm 17.3 - - - 1023.9 - 0.0 - - - - - - -
27/06:30pm 18.4 - - - 1023.5 - 0.0 - - - - - - -
27/06:00pm 18.6 - - - 1023.6 - 0.0 - - - - - - -
27/05:30pm 18.8 - - - 1023.8 - 0.0 - - - - - - -
27/05:00pm 19.3 - - - 1023.8 - 0.0 - - - - - - -
27/04:30pm 19.3 - - - 1023.8 - 0.0 - - - - - - -
27/04:00pm 18.8 - - - 1023.9 - 0.0 - - - - - - -
27/03:30pm 18.5 - - - 1024.0 - 0.0 - - - - - - -
27/03:00pm 19.4 - - - 1024.4 R 0.0 Fine Mostly clear 30 - - - -
27/02:30pm 18.7 - - - 1024.6 - 0.0 - - - - - - -
27/02:00pm 18.1 - - - 1024.6 - 0.0 - - - - - - -
27/01:30pm 19.2 - - - 1024.7 - 0.0 - - - - - - -
27/01:00pm 18.8 - - - 1025.0 - 0.0 - - - - - - -
27/12:30pm 17.7 - - - 1025.2 - 0.0 - - - - - - -
27/12:00pm 17.5 - - - 1025.4 F 0.0 Fine Partly cloudy 30 - - - -
27/11:30am 17.3 - - - 1025.7 - 0.0 - - - - - - -
27/11:00am 17.1 - - - 1025.8 - 0.0 - - - - - - -
27/10:30am 17.1 - - - 1025.9 - 0.0 - - - - - - -
27/10:00am 16.8 - - - 1025.8 - 0.0 - - - - - - -
27/09:30am 17.5 - - - 1025.9 - 0.0 - - - - - - -
27/09:00am 16.0 - - - 1025.9 R 0.0 Fine Mostly cloudy 30 - - - -
27/08:30am 14.9 - - - 1025.9 - 0.0 - - - - - - -
27/08:00am 15.1 - - - 1025.8 - 0.0 - - - - - - -
27/07:30am 13.9 - - - 1025.3 - 0.0 - - - - - - -
27/07:00am 13.5 - - - 1025.2 - 0.0 - - - - - - -
27/06:30am 13.6 - - - 1024.9 - 0.0 - - - - - - -
27/06:00am 13.4 - - - 1024.6 - 0.0 - - - - - - -
27/05:30am 13.4 - - - 1024.3 - 0.0 - - - - - - -
27/05:00am 13.3 - - - 1024.0 - 0.0 - - - - - - -
27/04:30am 13.3 - - - 1023.9 - 0.0 - - - - - - -
27/04:00am 13.5 - - - 1023.5 - 0.0 - - - - - - -
27/03:30am 13.7 - - - 1023.4 - 0.0 - - - - - - -
27/03:00am 13.9 - - - 1023.5 - 0.0 - - - - - - -
27/02:30am 14.0 - - - 1023.4 - 0.0 - - - - - - -
27/02:00am 14.3 - - - 1023.6 - 0.0 - - - - - - -
27/01:30am 14.1 - - - 1023.8 - 0.0 - - - - - - -
27/01:00am 14.1 - - - 1024.1 - 0.0 - - - - - - -
27/12:30am 14.3 - - - 1024.4 - 0.0 - - - - - - -
27/12:00am 14.2 - - - 1024.5 - 0.0 - - - - - - -
 
Date/Time
EDT
Temp

°C
Wind Pressure Rain
since 9am
mm
Weather Cloud Vis
km
Sea
Height
m
Swell
Dir
 
Speed
knots
Gust
knots
hPa Trend Height
m
Period
s
Dir
26/11:30pm 14.5 - - - 1024.4 - 0.0 - - - - - - -
26/11:00pm 14.8 - - - 1024.4 - 0.0 - - - - - - -
26/10:30pm 15.0 - - - 1024.3 - 0.0 - - - - - - -
26/10:00pm 15.2 - - - 1024.1 - 0.0 - - - - - - -
26/09:30pm 15.2 - - - 1023.7 - 0.0 - - - - - - -
26/09:00pm 15.3 - - - 1023.5 - 0.0 - - - - - - -
26/08:30pm 15.6 - - - 1023.3 - 0.0 - - - - - - -
26/08:00pm 16.1 - - - 1023.2 - 0.0 - - - - - - -
26/07:30pm 16.1 - - - 1022.9 - 0.0 - - - - - - -
26/07:00pm 16.1 - - - 1022.7 - 0.0 - - - - - - -
26/06:30pm 16.3 - - - 1022.3 - 0.0 - - - - - - -
26/06:00pm 16.0 - - - 1022.1 - 0.0 - - - - - - -
26/05:30pm 16.0 - - - 1022.1 - 0.0 - - - - - - -
26/05:00pm 16.9 - - - 1021.9 - 0.0 - - - - - - -
26/04:30pm 17.4 - - - 1021.8 - 0.0 - - - - - - -
26/04:00pm 17.4 - - - 1021.8 - 0.0 - - - - - - -
26/03:30pm 18.2 - - - 1021.6 - 0.0 - - - - - - -
26/03:00pm 18.7 - - - 1021.4 R 0.0 Fine Mostly cloudy 30 - - - -
26/02:30pm 18.7 - - - 1021.4 - 0.0 - - - - - - -
26/02:00pm 18.5 - - - 1021.5 - 0.0 - - - - - - -
26/01:30pm 18.7 - - - 1021.5 - 0.0 - - - - - - -
26/01:00pm 18.7 - - - 1021.7 - 0.0 - - - - - - -
26/12:30pm 18.2 - - - 1021.6 - 0.0 - - - - - - -
26/12:00pm 17.8 - - - 1021.6 R 0.0 Fine Mostly cloudy 30 - - - -
26/11:30am 17.8 - - - 1021.8 - 0.0 - - - - - - -
26/11:00am 16.7 - - - 1021.7 - 0.0 - - - - - - -
26/10:30am 16.5 - - - 1021.8 - 0.0 - - - - - - -
26/10:00am 16.0 - - - 1021.8 - 0.0 - - - - - - -
26/09:30am 15.3 - - - 1021.9 - 0.0 - - - - - - -
26/09:00am 14.8 - - - 1021.7 S 0.0 Fine Mostly cloudy 30 - - - -
26/08:30am 13.9 - - - 1021.6 - 0.0 - - - - - - -
26/08:00am 13.3 - - - 1021.4 - 0.0 - - - - - - -
26/07:30am 12.7 - - - 1021.3 - 0.0 - - - - - - -
26/07:00am 12.1 - - - 1021.0 - 0.0 - - - - - - -
26/06:30am 12.1 - - - 1020.9 - 0.0 - - - - - - -

Other Formats:

Comma delimited format used in spreadsheet applications
http://www.bom.gov.au/fwo/IDV60701/IDV60701.94868.axf

JavaScript Object Notation format (JSON) in row-major order
http://www.bom.gov.au/fwo/IDV60701/IDV60701.94868.json